Location: Newark
(41.0400°S, 62.7845°W)
Time: 16:37:39
(UTC+00:00)

Vanguard 2 Rocket - Pass Details

Date: 28 November 2021
Orbit: 553 x 3325 km, 32.9° (Epoch: 23 January)

Event Time Altitude Azimuth Distance (km) Brightness Sun altitude
Rises 11:56:17 0° 294° (WNW) 6,492 10.8 35.7°
Reaches altitude 10° 12:01:22 10° 298° (WNW) 5,071 10.4 36.6°
Maximum altitude 12:13:50 48° 6° (N) 2,002 9.2 39.0°
Drops below altitude 10° 12:21:01 10° 78° (ENE) 2,985 10.7 40.3°
Sets 12:23:16 0° 84° (E) 3,686 10.9 40.7°
